Content
SEND FEEDBACK

Daily
Averages
Monthly
Summary
Malaysia

PETALING JAYA, MALAYSIA


Home > Asia > Malaysia
Elevation: 30 meters     Latitude: 03 06N     Longitude: 0101 36

WEATHER
 
SELECT A DAY
Number of Records: 119,836;   Date Range: 7/19/98 - 7/23/14
 
SHARE

PRINT THIS DATA

[ ← Previous Day ]
WEATHER ALMANAC - 13 FEBRUARY, 2013
[ Next Day → ]
[ °F ]   °C
Weather ElementAverageHighLow
Temperature26.9 °C32 °C (4:00 pm)24 °C (8:00 am)
Dewpoint24.7 °C26 °C (12:00 pm)24 °C (1:00 am)
Humidity87.8 %100 % (5:00 am)66 % (4:00 pm)
Barometer1008.5 hPa1010.2 hPa (1:00 am)1006.1 hPa (4:00 pm)
Wind Speed4.8 km/h13 km/h (7:00 pm)
Weather ElementAverage
Visibility9.3 km
Wind DirectionSE (131.7 °)

Weather ElementTotal
Precipitation---
Cooling Degree Days9.7 (Base 18.3)
Growing Degree Days18 (Base 10)
Averaged from 23 records on 13 February, 2013
WEATHER CONDITIONS BREAKOUT
WIND DIRECTION BREAKOUT
WEATHER BY HOUR - 13 FEBRUARY, 2013
[ °F ]   °C
Local TimeTemperatureDewpointHumidityBarometerVisibilityWind DirectionWind SpeedGust SpeedPrecipitationEventsConditions
1:00 AM25 °C24 °C94 %1010.2 hPa10 kmNNE (20°)3.7 km/hMostly Cloudy
2:00 AM25 °C24 °C94 %1009.1 hPa9 kmNNW (340°)3.7 km/hMostly Cloudy
3:00 AM25 °C24 °C94 %1009.1 hPa9 kmNorth (10°)1.9 km/hMostly Cloudy
4:00 AM25 °C24 °C94 %1008.1 hPa9 kmNE (40°)1.9 km/hMostly Cloudy
5:00 AM25 °C25 °C100 %1008.1 hPa6.9 kmCalmRainLight Rain
6:00 AM25 °C24 °C94 %1008.1 hPa8 kmNNE (30°)1.9 km/hMostly Cloudy
7:00 AM25 °C24 °C94 %1008.1 hPa6.9 kmNorth (350°)7.4 km/hMostly Cloudy
8:00 AM24 °C24 °C100 %1009.1 hPa9 kmNorth (360°)5.6 km/hMostly Cloudy
9:00 AM24 °C24 °C100 %1009.1 hPa10 kmCalmMostly Cloudy
10:00 AM25 °C24 °C94 %1010.2 hPa9 kmNW (310°)1.9 km/hMostly Cloudy
11:00 AM27 °C25 °C89 %1010.2 hPa9 kmNNE (20°)3.7 km/hMostly Cloudy
12:00 PM28 °C26 °C89 %1010.2 hPa10 kmENE (70°)3.7 km/hMostly Cloudy
1:00 PM30 °C26 °C79 %1009.1 hPa10 kmNNE (30°)3.7 km/hMostly Cloudy
2:00 PM30 °C26 °C79 %1009.1 hPa10 kmNNE (30°)7.4 km/hMostly Cloudy
3:00 PM30 °C25 °C74 %1007.1 hPa10 kmNorth (10°)5.6 km/hMostly Cloudy
4:00 PM32 °C25 °C66 %1006.1 hPa10 kmNNE (30°)7.4 km/hMostly Cloudy
5:00 PM31 °C25 °C70 %1006.1 hPa10 kmNNE (30°)9.3 km/hMostly Cloudy
6:00 PM30 °C24 °C70 %1006.1 hPa10 kmNNE (30°)5.6 km/hMostly Cloudy
7:00 PM28 °C25 °C84 %1007.1 hPa10 kmWNW (300°)13 km/hMostly Cloudy
8:00 PM27 °C25 °C89 %1008.1 hPa10 kmNW (310°)9.3 km/hMostly Cloudy
9:00 PM27 °C24 °C84 %1009.1 hPa10 kmNNW (330°)7.4 km/hMostly Cloudy
10:00 PM26 °C25 °C94 %1009.1 hPa9 kmNNE (30°)3.7 km/hMostly Cloudy
11:00 PM26 °C25 °C94 %1010.2 hPa9 kmNorth (350°)1.9 km/hMostly Cloudy
Hourly data recorded from WMSA, located 0 kilometers away from Petaling Jaya, Malaysia







STORIES FROM OUR PARTNERS